TimeEDT,TemperatureF,Dew PointF,Humidity,Sea Level PressureIn,VisibilityMPH,Wind Direction,Wind SpeedMPH,Gust SpeedMPH,PrecipitationIn,Events,Conditions,WindDirDegrees,DateUTC
12:53 AM,64.0,35.1,34,30.02,10.0,NNW,15.0,-,N/A,,Mostly Cloudy,340,2013-03-26 04:53:00
1:53 AM,63.0,35.1,35,30.03,10.0,NW,9.2,-,N/A,,Overcast,320,2013-03-26 05:53:00
2:53 AM,60.1,36.0,41,30.04,10.0,NW,17.3,24.2,N/A,,Mostly Cloudy,320,2013-03-26 06:53:00
3:53 AM,57.0,42.1,57,30.03,10.0,NW,13.8,20.7,N/A,,Mostly Cloudy,320,2013-03-26 07:53:00
4:53 AM,57.0,44.1,62,30.04,10.0,NW,11.5,-,N/A,,Overcast,320,2013-03-26 08:53:00
5:53 AM,57.0,45.0,64,30.04,10.0,NNW,11.5,-,N/A,,Overcast,330,2013-03-26 09:53:00
6:53 AM,57.9,44.1,60,30.06,10.0,North,11.5,-,N/A,,Overcast,350,2013-03-26 10:53:00
7:53 AM,57.9,43.0,58,30.08,10.0,NNW,16.1,20.7,N/A,,Overcast,340,2013-03-26 11:53:00
8:53 AM,60.1,36.0,41,30.11,10.0,North,16.1,21.9,N/A,,Mostly Cloudy,350,2013-03-26 12:53:00
9:53 AM,61.0,34.0,36,30.13,10.0,North,17.3,-,N/A,,Mostly Cloudy,360,2013-03-26 13:53:00
10:53 AM,63.0,34.0,34,30.13,10.0,North,15.0,-,N/A,,Clear,360,2013-03-26 14:53:00
11:53 AM,64.9,37.0,36,30.13,10.0,North,16.1,-,N/A,,Clear,350,2013-03-26 15:53:00
12:53 PM,68.0,39.0,35,30.13,10.0,NNW,16.1,21.9,N/A,,Clear,340,2013-03-26 16:53:00
1:53 PM,69.1,32.0,25,30.11,10.0,North,17.3,21.9,N/A,,Clear,360,2013-03-26 17:53:00
2:53 PM,70.0,35.1,28,30.10,10.0,NW,12.7,21.9,N/A,,Clear,320,2013-03-26 18:53:00
3:53 PM,70.0,33.1,26,30.09,10.0,NNW,12.7,-,N/A,,Clear,340,2013-03-26 19:53:00
4:53 PM,69.1,30.9,24,30.09,10.0,WNW,19.6,-,N/A,,Clear,300,2013-03-26 20:53:00
5:53 PM,68.0,34.0,28,30.10,10.0,NNW,16.1,24.2,N/A,,Clear,340,2013-03-26 21:53:00
6:53 PM,66.0,36.0,33,30.12,10.0,NW,15.0,20.7,N/A,,Clear,320,2013-03-26 22:53:00
7:53 PM,63.0,37.0,38,30.14,10.0,NNW,12.7,-,N/A,,Clear,330,2013-03-26 23:53:00
8:53 PM,60.1,34.0,38,30.17,10.0,NW,12.7,-,N/A,,Clear,320,2013-03-27 00:53:00
9:53 PM,57.0,30.9,37,30.20,10.0,NNW,18.4,23.0,N/A,,Clear,330,2013-03-27 01:53:00
10:53 PM,55.0,32.0,42,30.22,10.0,NNW,16.1,-,N/A,,Clear,330,2013-03-27 02:53:00
11:53 PM,53.1,34.0,48,30.23,10.0,NW,12.7,21.9,N/A,,Clear,320,2013-03-27 03:53:00